DW7572 Weather Reports


Display with metric or nautical units.
time (UTC)temp
F
wind
direction
speed
MPH
gust
MPH
rain 1hr
in
rain 24hr
in
rain mn
in
humidity
%
barometer
mb
20260508153018 66 248 6.0 16.0 0.00 0.00 0.00 28 1007.9
20260508150017 64 248 7.0 16.0 0.00 0.00 0.00 33 1008.2
20260508143037 61 225 5.0 12.0 0.00 0.00 0.00 40 1008.3
20260508140037 57 225 5.0 11.0 0.00 0.00 0.00 44 1008.5
20260508133016 54 225 5.0 12.0 0.00 0.00 0.00 45 1008.6
20260508130017 51 203 7.0 13.0 0.00 0.00 0.00 52 1008.4
20260508123016 46 203 5.0 9.0 0.00 0.00 0.00 56 1008.6
20260508120017 43 203 4.0 9.0 0.00 0.00 0.00 60 1008.3
20260508113017 43 203 6.0 9.0 0.00 0.00 0.00 55 1008.2
20260508110016 43 203 7.0 9.0 0.00 0.00 0.00 53 1008.3
20260508103016 43 203 7.0 10.0 0.00 0.00 0.00 53 1008.3
20260508100017 42 203 6.0 10.0 0.00 0.00 0.00 54 1008.3
20260508093017 42 203 6.0 9.0 0.00 0.00 0.00 53 1008.6
20260508090016 43 203 6.0 9.0 0.00 0.00 0.00 52 1008.7
20260508083017 42 203 4.0 8.0 0.00 0.00 0.00 55 1008.8
20260508080016 42 203 3.0 6.0 0.00 0.00 0.00 55 1008.8
20260508073016 42 203 2.0 5.0 0.00 0.00 0.00 57 1009.1
20260508070016 43 203 4.0 6.0 0.00 0.00 0.00 54 1009.4
20260508063036 44 203 3.0 6.0 0.00 0.00 0.00 53 1009.5
20260508060036 45 203 4.0 6.0 0.00 0.00 0.00 52 1009.7
20260508053036 45 0 4.0 7.0 0.00 0.00 0.00 47 1009.9
20260508050016 47 0 2.0 4.0 0.00 0.00 0.00 46 1010.0
20260508043037 49 0 1.0 3.0 0.00 0.00 0.00 43 1010.3
20260508040017 50 0.0 2.0 0.00 0.00 0.00 40 1010.5
20260508033017 52 0 3.0 4.0 0.00 0.00 0.00 36 1010.6
20260508030017 53 0 3.0 5.0 0.00 0.00 0.00 35 1010.5
20260508023017 54 0 3.0 4.0 0.00 0.00 0.00 34 1010.5
20260508020018 57 0 4.0 8.0 0.00 0.00 0.00 31 1010.2
20260508013017 58 0 6.0 9.0 0.00 0.00 0.00 29 1009.9
20260508010017 60 338 7.0 13.0 0.00 0.00 0.00 27 1009.9
20260508003017 61 315 8.0 14.0 0.00 0.00 0.00 25 1009.6
20260508000016 62 315 11.0 20.0 0.00 0.00 0.00 25 1009.7
20260507233037 63 293 8.0 19.0 0.00 0.00 0.00 24 1009.9
20260507230015 63 315 11.0 23.0 0.00 0.00 0.00 23 1010.1
20260507223016 62 315 10.0 24.0 0.00 0.00 0.00 25 1010.2
20260507220015 63 315 9.0 21.0 0.00 0.00 0.00 26 1010.5
20260507213015 62 338 11.0 21.0 0.00 0.00 0.00 24 1010.8
20260507210015 62 315 11.0 23.0 0.00 0.00 0.00 25 1011.0
20260507203018 61 315 9.0 20.0 0.00 0.00 0.00 25 1011.1
20260507200017 60 315 11.0 23.0 0.00 0.00 0.00 29 1011.6
20260507193018 60 315 9.0 23.0 0.00 0.00 0.00 28 1011.8
20260507190018 58 315 11.0 19.0 0.00 0.00 0.00 29 1011.8
20260507183018 57 315 8.0 26.0 0.00 0.00 0.00 30 1012.2
20260507180018 56 23 8.0 19.0 0.00 0.00 0.00 32 1012.4
20260507173017 55 45 7.0 18.0 0.00 0.00 0.00 31 1012.5
20260507170018 54 23 7.0 26.0 0.00 0.00 0.00 33 1012.8
20260507163017 53 68 6.0 14.0 0.00 0.00 0.00 36 1013.0
20260507160038 52 68 8.0 14.0 0.00 0.00 0.00 38 1013.2